GFSGBSN_prec_radar_141.txt.gz
Reflectivity
-18 -20 -20 -20 -20 -20 -20 -20 -20 5 -10 14 -1 -1 -3 9 -17 -20 -20 -20 -20 -20 -20 -20 -20 -20 -20 -20 -20 -20 -20 -20 -20 -20 -20 -20 -20 -20 -20 -20 -20 -20 -20 -20 -20 -20 -20
-5 -13 -20 -20 -18 -20 -20 -20 -20 -11 -15 8 -9 6 6 12 5 -20 -20 -20 -20 -20 -20 -20 -20 -20 -20 -20 -20 -20 -20 -20 -20 -20 -20 -20 -20 -20 -20 -20 -20 -20 -20 -20 -20 -20 -20
-6 -20 -17 -20 -15 -20 -20 -20 -20 -20 -20 5 10 -10 9 -12 14 10 -5 -20 -20 -20 -20 -20 -20 -20 -20 -20 -20 -20 -20 -20 -20 -20 -20 -20 -20 -20 -20 -20 -20 -20 -20 -20 -20 -20 -20
-12 -13 -20 -16 -15 -20 -20 -20 -20 -20 -20 -20 -16 -11 10 13 -9 10 -4 -20 -20 -20 -20 -20 -20 -20 -20 -20 -20 -20 -20 -20 -20 -20 -20 -20 -20 -20 -20 -20 -20 -20 -20 -20 -20 -20 -20
-4 9 1 7 -20 -20 -20 -20 -20 -20 -20 -20 -20 -12 12 1 10 5 6 -20 -20 -20 -20 -20 -20 -20 -20 -20 -20 -20 -20 -20 -20 -20 -20 -20 -20 -20 -20 -20 -20 -20 -20 -20 -20 -20 -20
10 -3 -20 -20 -20 -20 -20 -20 14 3 -20 -20 -20 -20 -12 4 9 -9 -20 1 -20 -20 -20 -20 -20 -20 -20 -20 -20 -20 -20 -20 -20 -20 -20 -20 -20 -20 -20 -20 -20 -20 -20 -20 -20 -20 -20
15 2 -20 -19 -20 -20 0 -18 -20 5 3 -5 -20 -20 -20 -20 -4 2 -1 -20 -20 -20 -20 -20 -20 -20 -20 -20 -20 -20 -20 -20 -20 -20 -20 -20 -20 -20 -20 -20 -20 -20 -20 -20 -20 -20 -20
14 16 -5 14 13 4 11 -3 -20 -20 9 15 10 -20 -20 -20 -20 -20 -20 -20 -20 -20 -20 -20 -20 -20 -20 -20 -20 -20 -20 -20 -20 -20 -20 -20 -20 -20 -20 -20 -20 -20 -20 -20 -20 -20 -20
11 10 -4 14 12 14 13 14 12 -6 -3 12 7 12 -20 -20 -18 -20 -20 -20 -20 -20 -20 -20 -20 -20 -20 -20 -20 -20 -20 -20 -20 -20 -20 -20 -20 -20 -20 -20 -20 -20 -20 -20 -20 -20 -20
12 0 -20 10 8 13 12 -14 4 14 9 13 12 -5 -20 -19 -20 -20 -20 -20 -20 -20 -20 -20 -20 -20 -20 -20 -20 -20 -20 -20 -20 -20 -20 -20 -20 -20 -20 -20 -20 -20 -20 -20 -20 -20 -20
7 9 -20 2 11 8 -1 -20 -20 -3 12 16 15 -20 5 -19 -20 -20 -20 -20 -20 -20 -20 -20 -20 -20 -20 -20 -20 -20 -20 -20 -20 -20 -20 -20 -20 -20 -20 -20 -20 -20 -20 -20 -20 -20 -20
-20 -5 -20 -20 11 -6 9 -20 -20 -20 8 13 17 -13 -20 -20 -20 -20 -20 -20 -20 -20 -20 -20 -20 -20 -20 -20 -20 -20 -20 -20 -20 -20 -20 -20 -20 -20 -20 -20 -20 -20 -20 -20 -20 -20 -20
-20 12 -20 -20 -6 -20 -20 -20 -20 -20 -20 -20 16 13 -16 -20 -20 -20 -20 -20 -20 -20 -20 -20 -20 -20 -20 -20 -20 -20 -20 -20 -20 -20 -20 -20 -20 -20 -20 -20 -20 -20 -20 -20 -20 -20 -20
-18 -11 -20 -20 -20 -20 -20 -20 -20 -20 -2 12 7 18 2 -20 -20 -20 -20 -20 -20 -20 -20 -20 -20 -20 -20 -20 -20 -20 -20 -20 -20 -20 -20 -20 -20 -20 -20 -20 -20 -10 -16 -20 -20 -20 -20
14 -9 20 -12 -16 -20 -20 -20 -20 -20 -13 5 12 0 17 -2 -20 -20 -20 -20 -20 -20 -20 -20 -20 -20 -20 -20 -20 -20 -20 -20 -20 -20 -20 -20 -20 -20 -20 -20 -18 -20 -20 -14 14 -19 -20
-20 -20 -3 20 3 -20 -18 -17 -20 -20 -7 8 9 1 13 4 -20 -20 -20 -20 -20 -20 -20 -20 -20 -20 -20 -20 -20 -20 -20 -20 -20 -20 -20 -20 -20 -20 -20 -20 -20 -20 -12 -6 6 0 -14
-20 -11 5 -5 -20 -20 -4 -20 -20 -20 -20 12 3 -7 -8 -17 7 15 -9 -20 -20 -20 -20 -20 -20 -20 -20 -20 -20 -20 -20 -20 -20 -20 -20 -20 -20 -20 -20 -20 -12 -4 -8 -7 -13 -13 -13
-17 16 22 -9 -20 15 -2 -20 -20 4 10 19 -14 -2 -20 9 3 13 -4 -20 -20 -20 -20 -20 -20 -20 -20 -20 -20 -20 -20 -20 -20 -20 -20 -20 -20 -20 -20 -14 5 -19 -20 -15 23 -2 -20
-13 4 18 -12 -3 -4 -16 -20 -15 11 15 9 13 7 2 -19 7 -6 -4 -18 -17 -20 -20 -20 -20 -20 -20 -20 -20 -20 -20 -20 -20 -20 -20 -20 -20 -20 -20 -20 -20 9 10 22 13 -5 -19
-5 -8 -4 -20 -20 -15 -13 -20 -20 -1 11 15 11 5 20 20 -13 -20 -20 -20 -20 -20 -20 -20 -20 -20 -20 -20 -20 -13 -20 -20 -20 -20 -20 -7 -20 -20 -20 -16 -20 -18 -20 18 19 13 -20
-20 -20 -20 -19 -10 10 -5 7 -20 -20 11 24 17 10 -9 9 24 1 -20 -20 -20 -16 -5 -20 -20 -20 -20 -20 -20 -20 -20 -20 -20 -20 -20 16 9 -20 -13 2 19 -16 -20 -7 10 12 -17
-20 -20 -20 -20 -19 15 20 6 10 -9 -20 24 17 11 -2 -20 -20 -12 -7 -20 -20 -20 -5 -8 -20 -20 -20 -20 -20 -20 -20 -20 -20 -20 24 -20 3 18 -20 -20 -20 21 20 8 -7 -20 -20
-20 -20 -20 -17 14 18 15 -16 -19 10 -16 22 23 6 -5 -10 -20 -10 -20 -20 -20 -20 15 -17 -20 -20 -20 -4 -20 -20 -20 -1 8 -6 17 -2 23 15 10 -8 14 6 -17 -18 -11 -20 -20
-15 -20 -2 -0 20 18 11 6 9 13 -11 -16 15 25 30 4 -15 -14 -16 4 6 -18 -14 -9 16 -7 1 -0 -13 -20 6 -1 -13 -20 -20 12 29 22 9 2 5 2 2 -15 -20 -20 -20
-20 -13 -14 14 21 13 5 -19 -15 18 2 -20 -4 21 27 6 -20 -20 -2 9 10 9 19 25 12 -11 17 -14 18 28 10 -20 -20 -20 2 1 20 17 14 -12 -20 -17 -20 -20 -20 -20 -20
11 3 -19 -20 22 11 -6 -13 10 -12 24 -0 -11 6 28 23 -16 -20 -9 1 26 29 9 25 4 -20 -5 18 15 -6 -20 -20 -15 -13 -11 12 14 14 -19 1 9 -20 -20 -20 -20 -20 -20
-8 -6 5 -9 19 15 -8 1 11 16 17 -7 -20 10 25 26 -10 -16 5 -9 5 29 20 -20 -20 -7 -18 33 3 -16 -4 -20 0 2 -20 9 1 20 -7 0 -20 -20 -20 -20 -20 -20 -20
-8 -6 22 14 16 3 13 1 2 16 24 11 -13 -3 27 30 -2 -20 -20 -20 -12 -20 -19 16 -5 -4 29 11 -2 -4 -20 -15 -9 -8 11 -15 8 18 21 -4 -19 -20 -20 -20 -20 -20 -20
-20 -20 -20 -4 22 -2 11 14 -0 21 8 16 11 -9 21 29 26 -20 12 23 19 -9 -16 -20 -20 6 -16 -10 -19 -2 -20 -20 -20 9 -20 -20 -20 -20 -20 -20 -20 -20 -20 -20 -20 -20 -20

GFSGBSN_prec_radar_144.txt.gz
Reflectivity
0 -20 -20 -20 -20 -20 -20 -10 7 -5 -20 -19 12 4 7 9 -14 -0 -20 -20 -20 -20 -20 -20 -20 -20 -20 -20 -20 -20 -20 -20 -20 -20 -20 -20 -20 -20 -20 -20 -20 -20 -20 -20 -20 -20 -20
-20 -20 -20 -20 -20 -20 -20 -20 -20 -20 -20 -20 -20 15 19 14 15 14 1 -20 -20 -20 -20 -20 -20 -20 -20 -20 -20 -20 -20 -20 -20 -20 -20 -20 -20 -20 -20 -20 -20 -20 -20 -20 -20 -20 -20
-20 -20 -20 -20 -20 3 -18 -20 -20 -20 -20 -20 -20 5 -12 14 15 3 10 -8 -20 -20 -20 -20 -20 -20 -20 -20 -20 -20 -20 -20 -20 -20 -20 -20 -20 -20 -20 -20 -20 -20 -20 -20 -20 -20 -20
-16 -20 -20 -20 -9 -8 -18 -20 -20 -20 -20 -20 -20 -15 13 13 -13 9 -20 -20 -20 -20 -20 -20 -20 -20 -20 -20 -20 -20 -20 -20 -20 -20 -20 -20 -20 -20 -20 -20 -20 -20 -20 -20 -20 -20 -20
-20 -20 -16 -20 -20 -12 -8 -20 -20 -20 -20 -20 -20 -20 -20 -7 13 16 -12 -20 -20 -20 -20 -20 -20 -20 -20 -20 -20 -20 -20 -20 -20 -20 -20 -20 -20 -20 -20 -20 -20 -20 -20 -20 -20 -20 -20
-0 4 5 4 -6 -20 -20 -20 -10 4 -20 -20 -20 -20 -20 14 15 10 -16 -20 -20 -20 -20 -20 -20 -20 -20 -20 -20 -20 -20 -20 -20 -20 -20 -20 -20 -20 -20 -20 -20 -20 -20 -20 -20 -20 -20
13 14 12 10 -7 -20 -20 -20 -20 -20 -20 -20 -20 -20 -20 -20 14 -1 -20 -20 -20 -20 -20 -20 -20 -20 -20 -20 -20 -20 -20 -20 -20 -20 -20 -20 -20 -20 -20 -20 -20 -20 -20 -20 -20 -20 -20
9 12 12 13 14 6 -5 5 -20 -20 5 5 -3 -20 -20 -20 -20 -20 -20 -20 -20 -20 -20 -20 -20 -20 -20 -20 -20 -20 -20 -20 -20 -20 -20 -20 -20 -20 -20 -20 -20 -20 -20 -20 -20 -20 -20
11 11 11 12 13 13 13 2 12 -10 -2 8 -5 2 -12 -20 -20 -20 -20 -20 -20 -20 -20 -20 -20 -20 -20 -20 -20 -20 -20 -20 -20 -20 -20 -20 -20 -20 -20 -20 -20 -20 -20 -20 -20 -20 -20
14 8 14 5 10 12 11 11 3 -2 -20 6 -9 5 -19 3 -20 -20 -20 -20 -20 -20 -20 -20 -20 -20 -20 -20 -20 -20 -20 -20 -20 -20 -20 -20 -20 -20 -20 -20 -20 -20 -20 -20 -20 -20 -20
-4 7 2 -13 0 -4 12 -10 -20 -13 -2 1 1 3 12 -11 -20 -20 -20 -20 -20 -20 -20 -20 -20 -20 -20 -20 -20 -20 -20 -20 -20 -20 -20 -20 -20 -20 -20 -20 -20 -20 -20 -20 -20 -20 -20
3 5 1 -7 -20 -20 -5 2 -20 -20 8 -9 6 -9 -15 -20 -20 -20 -20 -20 -20 -20 -20 -20 -20 -20 -20 -20 -20 -20 -20 -20 -20 -20 -20 -20 -20 -20 -20 -20 -20 -20 -20 -20 -20 -20 -20
8 -7 2 5 -6 -2 -10 -11 -20 -20 -2 13 15 -17 -20 -20 -20 -20 -20 -20 -20 -20 -20 -20 -20 -20 -20 -20 -20 -20 -20 -20 -20 -20 -20 -20 -20 -20 -20 -20 -20 -20 -20 -20 -20 -20 -20
19 -18 -20 -19 -20 3 -20 -20 -20 -20 -20 -17 9 15 -20 -20 -20 -20 -20 -20 -20 -20 -20 -20 -20 -20 -20 -20 -20 -20 -20 -20 -20 -20 -20 -20 -20 -20 -20 -20 -20 -20 -5 -2 -20 -20 -20
15 -1 -18 -11 -20 -20 -20 -20 -20 -20 -8 12 8 11 -10 -20 -20 -20 -20 -20 -20 -20 -20 -20 -20 -20 -20 -20 -20 -20 -20 -20 -20 -20 -20 -20 -20 -20 -20 -20 -20 -20 -20 -6 13 3 -17
17 4 10 9 16 -7 -20 -20 -20 -20 -20 13 5 -13 -1 -20 -20 -20 -20 -20 -20 -20 -20 -20 -20 -20 -20 -20 -20 -20 -20 -20 -20 -20 -20 -20 -20 -20 -20 -20 -9 -13 -8 -13 7 5 -20
25 4 -18 -19 -4 18 -20 -9 -20 -20 -2 11 -1 -7 -20 -20 -20 -16 -18 -20 -20 -20 -20 -20 -20 -20 -20 -20 -20 -20 -20 -20 -20 -20 -20 -20 -20 -20 -20 -20 -20 -20 -20 -20 17 5 -16
-20 -20 -20 -20 -20 15 19 -20 -20 -20 -0 13 -5 -20 -20 -4 -10 4 -20 -20 -20 -20 -20 -20 -20 -20 -20 -20 -20 -20 -20 -20 -20 -20 -20 -18 -20 -20 -20 -20 -20 -20 -20 -12 8 9 -8
14 10 -12 12 13 10 21 -20 -20 -20 15 -20 -4 -20 6 3 -17 -10 -20 -20 -20 -20 -20 -20 -20 -20 -20 -20 -20 -20 -20 -20 -20 -20 -20 -20 -20 -20 -20 -20 -20 -20 -20 3 -14 28 19
-1 11 -19 4 9 15 12 -3 -20 16 16 15 6 -14 15 13 -20 -20 -20 -20 -20 -20 -18 -20 -20 -20 -20 -20 -20 -17 -20 -20 -20 -20 -20 -20 -20 -20 -20 -20 -20 -20 -20 -13 12 12 -0
18 -13 16 -20 -17 13 -2 -20 -20 -20 2 3 12 -12 -20 7 14 2 -20 -20 -20 -15 -20 -20 -20 -20 -20 -20 -20 -20 -20 -20 -20 -20 -20 21 -20 -12 -20 -20 -20 -20 -20 -15 3 -20 12
16 -20 -20 -20 -20 -8 -20 -20 -20 4 -6 -9 16 -5 -20 -20 -16 8 4 0 -20 -20 -20 -20 -20 -20 15 1 -20 -20 -20 -20 -8 -20 -20 -20 -20 -20 -20 -20 -20 2 -20 -20 -20 -12 -10
19 13 15 -12 -20 3 13 -20 -19 -2 -4 3 -13 -13 13 -9 -18 -1 -20 -20 -20 -18 -20 -20 -19 2 16 -12 -15 -20 -20 -20 -20 8 -9 15 19 -20 -10 -20 -18 8 -14 7 -20 -20 -20
19 19 -8 -20 -20 -20 -7 -20 -20 -3 -6 -18 11 20 31 5 -4 -20 -20 -20 -20 -20 -20 -20 8 23 15 4 -12 2 20 -16 -20 -17 14 3 4 -5 7 11 7 -20 -20 -20 -20 -20 -20
17 26 22 18 -20 -20 -20 4 -20 9 15 -11 16 8 28 21 -17 -20 -15 -6 -20 -10 12 13 2 -9 17 15 35 10 -19 3 -20 -20 -20 -20 -20 11 17 11 -16 -20 -19 -0 -20 -20 -20
29 28 19 -18 -17 -20 14 9 -20 -20 2 15 4 20 26 30 -5 -20 -20 -20 -20 -11 -11 -20 6 -10 29 31 28 10 9 10 -15 -20 -20 -20 -20 13 19 8 -19 -20 -20 -20 -20 -20 -20
17 16 16 -13 -20 -6 19 5 -20 -14 3 11 8 18 15 26 -3 -5 18 -12 15 22 24 3 6 19 25 33 17 -13 -13 -10 -10 -20 -20 -0 19 13 7 12 -0 -10 -20 -20 -20 -20 -20
-19 -20 -20 -20 -20 -20 31 16 -20 12 -6 8 11 -12 -2 25 1 -20 1 30 27 13 21 7 18 -3 27 14 14 -19 -20 -20 -20 -20 -20 -19 14 -11 -20 -4 -12 -20 -20 -20 -20 -20 -20
9 -20 -20 1 -20 20 21 20 -17 -20 -6 15 10 14 16 17 18 10 25 5 -11 20 25 28 -19 -20 -20 -20 -20 -20 -20 -20 -18 -17 -20 5 -20 -17 -15 -19 -19 -20 -20 -20 -20 -20 -20

GFSGBSN_prec_radar_150.txt.gz
Reflectivity
-13 -15 -17 6 -18 -20 -20 -20 -20 -20 -20 -20 -20 -20 -13 -6 -2 -14 -20 -20 -20 -20 -20 -20 -20 -20 -20 -20 -20 -20 -20 -20 -20 -20 -20 -20 -20 -20 -20 -20 -20 -20 -20 -20 -20 -20 -20
31 24 22 -7 -17 -20 -20 -20 -20 -20 -20 -20 -20 -20 -20 10 -8 6 -11 -20 -20 -20 -20 -20 -20 -20 -20 -20 -20 -20 -20 -20 -20 -20 -20 -20 -20 -20 -20 -20 -20 -20 -20 -20 -20 -20 -20
-5 -5 -10 -8 7 -20 -20 -20 -20 -20 -20 -20 -20 -20 -20 -20 -20 -20 6 -19 -20 -20 -20 -20 -20 -20 -20 -20 -20 -20 -20 -20 -20 -20 -20 -20 -20 -20 -20 -20 -20 -20 -20 -20 -20 -20 -20
24 6 17 4 5 -20 -20 -20 -20 -20 -20 -20 -20 -20 -20 -20 -20 -20 -13 -20 -20 -20 -20 -20 -20 -20 -20 -20 -20 -20 -20 -20 -20 -20 -20 -20 -20 -20 -20 -20 -20 -20 -20 -20 -20 -20 -20
21 24 21 6 -20 -20 -20 -20 -20 -20 -20 -20 -20 -20 -20 -20 -20 -2 9 -3 -20 -20 -20 -20 -20 -20 -20 -20 -20 -20 -20 -20 -20 -20 -20 -20 -20 -20 -20 -20 -20 -20 -20 -20 -20 -20 -20
14 14 4 -11 -20 -18 -20 -20 -20 -20 -20 -20 -20 -20 -20 -20 -17 3 3 -20 -20 -20 -20 -20 -20 -20 -20 -20 -20 -20 -20 -20 -20 -20 -20 -20 -20 -20 -20 -20 -20 -20 -20 -20 -20 -20 -20
18 -17 -18 -20 -20 -20 -20 -20 -20 -20 -20 -20 -20 -20 -20 -20 -20 -11 -20 -20 -20 -20 -20 -20 -20 -20 -20 -20 -20 -20 -20 -20 -20 -20 -20 -20 -20 -20 -20 -20 -20 -20 -20 -20 -20 -20 -20
11 -1 -15 -18 -20 -20 -20 -18 -20 -20 -20 -20 -20 -20 -20 -20 -20 -20 -17 -20 -20 -20 -20 -20 -20 -20 -20 -20 -20 -20 -20 -20 -20 -20 -20 -20 -20 -20 -20 -20 -20 -20 -20 -20 -20 -20 -20
-20 -20 -15 -20 -20 -20 -20 -20 -4 -20 -20 -20 -20 -20 -20 -20 -20 -20 -20 -20 -20 -20 -20 -20 -20 -20 -20 -20 -20 -20 -20 -20 -20 -20 -20 -20 -20 -20 -20 -20 -20 -20 -20 -20 -20 -20 -20
-20 -20 -20 -20 -20 -20 -20 -4 -5 -20 -20 -20 -20 -20 -16 -20 -20 -20 -20 -20 -20 -20 -20 -20 -20 -20 -20 -20 -20 -20 -20 -20 -20 -20 -20 -20 -20 -20 -20 -20 -20 -20 -20 -20 -20 -20 -20
-17 -20 -12 3 -1 1 -12 -20 -20 -19 -19 -20 -20 -19 -20 -20 -20 -20 -20 -20 -20 -20 -20 -20 -20 -20 -20 -20 -20 -20 -20 -20 -20 -20 -20 -20 -20 -20 -20 -20 -20 -20 -20 -20 -20 -20 -20
13 -20 -20 -15 -20 -14 -7 -10 -15 6 8 7 4 2 -20 -20 -20 -20 -20 -20 -20 -20 -20 -20 -20 -20 -20 -20 -20 -20 -20 -20 -20 -20 -20 -20 -20 -20 -20 -20 -20 -20 -20 -20 -20 -20 -20
-8 -20 -20 -20 -3 -20 -18 -20 -20 -16 -12 11 10 13 6 1 3 0 -3 -12 -6 -18 -20 -20 -20 -20 -20 -20 -20 -20 -20 -20 -20 -20 -20 -20 -20 -20 -20 -20 -20 -20 -20 -20 -17 1 -20
-20 -18 -20 -12 -20 -20 -14 -20 -20 -20 -20 8 9 11 -6 -10 -17 -20 -19 -20 -20 -20 -20 -20 -20 -20 -20 -20 -20 -20 -20 -20 -20 -20 -20 -20 -20 -20 -20 -20 -20 -20 -20 -10 4 -20 -2
12 -17 -12 -13 -20 -19 -1 -20 -20 -20 -20 -20 6 12 -8 -20 -20 -20 -20 -20 -20 -20 -20 -20 -20 -20 -20 -20 -20 -20 -20 -20 -20 -20 -20 -20 -20 -20 -20 -20 -20 -20 -20 -20 -17 -20 10
17 17 -20 -20 -12 -20 -20 -20 -20 -20 -20 -9 15 14 8 -20 -20 -20 -20 -20 -20 -20 -20 -20 -20 -20 -20 -20 -20 -20 -20 -20 -20 -20 -20 -20 -20 -20 -20 -20 -20 -20 -20 -7 16 10 11
19 18 14 -20 -13 -20 -20 -9 -20 -20 -20 -19 12 3 -13 -20 -11 -4 -20 -20 -20 -20 -20 -20 -20 -20 -20 -20 -20 -20 -20 -20 -20 -20 -20 -20 -20 -20 -20 -20 -20 -20 -17 -20 11 21 18
18 20 20 -20 -16 -20 -20 -19 -16 -20 -20 13 12 -19 -20 -20 3 -5 -20 -20 -20 -20 -20 -20 -20 -20 -20 -20 -20 -20 -20 -20 -20 -20 -20 -20 -20 -20 -20 -20 -20 -20 -20 -20 19 21 19
18 18 16 10 2 -20 -17 -20 12 -20 -20 15 1 5 -8 14 -13 -5 -20 -20 -20 -20 -20 -20 -20 -20 -20 -20 -20 -20 -20 -20 -20 -20 -20 -20 -20 -19 -20 -13 -20 -20 -20 -20 -12 20 14
32 21 22 14 22 1 -3 -20 -20 -18 -20 9 3 4 12 15 2 -20 -20 -20 -20 -20 -20 -20 -20 -20 -20 -20 -20 -20 -20 -20 -20 -20 -20 -20 -20 -13 -20 -2 -20 13 -20 -3 17 21 17
29 30 21 24 0 28 -2 -20 -20 -20 10 6 4 2 -20 6 7 -17 -20 -20 -20 -20 -20 -20 -20 -20 -20 -20 -20 -20 -20 -20 -20 -20 -20 -20 -13 1 -4 8 -11 -20 2 -20 -10 -19 15
22 18 21 42 20 16 -20 -20 -19 -20 6 11 7 14 -10 -1 -16 -0 -14 -20 -20 -20 -20 -20 -20 -20 -20 -20 -20 -20 -20 -16 -16 7 4 2 6 14 -20 -20 -20 -20 5 -20 -20 -20 -20
0 32 -14 38 31 17 18 -11 -20 -16 2 11 19 -12 -6 -13 -5 -2 -1 -20 -20 -20 -20 -20 -20 -20 -20 -20 -20 -20 -20 -20 -12 -19 -20 -3 3 -4 -20 -19 -10 -17 -20 -20 -20 -20 -20
11 37 19 7 16 25 6 -17 -20 4 -14 -18 10 8 11 5 9 3 -13 -20 -20 -20 -11 -20 -10 -8 -20 -20 -20 -11 -0 -10 -12 -20 -20 2 4 -14 4 5 13 -20 -20 -20 -20 -20 -20
25 26 30 14 -20 13 16 11 -20 -20 -17 17 22 12 18 12 1 2 -16 -17 -1 -2 -6 -2 -20 -20 -20 22 17 11 5 -2 -17 -20 -20 2 13 12 13 15 -20 -20 -20 -20 -20 -20 -20
28 36 34 22 11 26 15 11 -19 -20 3 19 13 2 15 -3 2 -17 9 12 11 11 5 -20 -20 -20 9 28 15 11 8 -18 -4 2 -20 2 20 17 17 22 8 -20 -20 -20 -20 -19 -20
21 24 39 37 17 15 8 11 10 16 13 17 10 5 20 22 -20 -20 13 6 12 10 10 1 -20 8 15 24 13 14 13 -20 13 13 -2 -2 12 8 2 20 -5 -20 -20 -20 -3 8 -20
19 28 36 30 13 -3 -20 -20 -7 15 17 -6 6 6 19 1 -16 10 -11 3 3 14 11 -8 0 -2 30 11 17 14 16 12 9 -3 19 -12 3 17 15 22 18 -20 -20 -20 -20 -20 -20
12 34 29 7 1 -20 -20 -20 12 13 15 16 19 13 11 18 14 5 -20 -20 -18 -17 15 18 15 15 24 27 18 20 17 16 -5 11 -20 10 -17 22 19 20 -20 -20 -20 -20 -20 -20 -20

GFSGBSN_prec_radar_156.txt.gz
Reflectivity
-20 -1 12 -11 -20 -20 8 -6 -20 -20 -20 -20 -20 -20 -20 -20 -20 -20 -20 -20 -20 -20 -20 -20 -20 -20 -20 -20 -20 -20 -20 -20 -20 -20 -20 -20 -20 -20 -20 -20 -20 -20 -20 -20 -20 -20 -20
31 16 30 25 2 9 21 13 -8 -20 -18 -20 -20 -20 -20 -20 -20 -20 -20 -20 -20 -20 -20 -20 -20 -20 -20 -20 -20 -20 -20 -20 -20 -20 -20 -20 -20 -20 -20 -20 -20 -20 -20 -20 -20 -20 -20
-20 -3 4 20 30 27 21 23 -4 -20 -20 -20 -20 -20 -20 -20 -20 -20 -20 -20 -20 -20 -20 -20 -20 -20 -20 -20 -20 -20 -20 -20 -20 -20 -20 -20 -20 -20 -20 -20 -20 -20 -20 -20 -20 -20 -20
20 20 18 12 24 21 22 -8 -20 -20 -20 -20 -20 -20 -20 -20 -20 -20 -20 -20 -20 -20 -20 -20 -20 -20 -20 -20 -20 -20 -20 -20 -20 -20 -20 -20 -20 -20 -20 -20 -20 -20 -20 -20 -20 -20 -20
14 19 22 20 12 17 14 18 -8 -20 -7 -20 -20 -20 -20 -20 -20 -20 -20 -20 -20 -20 -20 -20 -20 -20 -20 -20 -20 -20 -20 -20 -20 -20 -20 -20 -20 -20 -20 -20 -20 -20 -20 -20 -20 -20 -20
1 17 21 17 25 13 22 6 -16 -9 -16 -20 -20 -20 -20 -20 -20 -20 -20 -20 -20 -20 -20 -20 -20 -20 -20 -20 -20 -20 -20 -20 -20 -20 -20 -20 -20 -20 -20 -20 -20 -20 -20 -20 -20 -20 -20
20 19 6 20 24 4 -2 -3 -1 -8 -7 -20 -20 -20 -20 -20 -20 -20 -20 -20 -20 -20 -20 -20 -20 -20 -20 -20 -20 -20 -20 -20 -20 -20 -20 -20 -20 -20 -20 -20 -20 -20 -20 -20 -20 -20 -20
-7 22 -20 17 24 25 20 18 -2 14 -5 -18 -20 -20 -20 -20 -20 -20 -20 -20 -20 -20 -20 -20 -20 -20 -20 -20 -20 -20 -20 -20 -20 -20 -20 -20 -20 -20 -20 -20 -20 -20 -20 -20 -20 -20 -20
-17 -4 -20 -20 -20 -20 -19 8 -19 -6 18 -1 3 -11 -20 -20 -20 -20 -20 -20 -20 -20 -20 -20 -20 -20 -20 -20 -20 -20 -20 -20 -20 -20 -20 -20 -20 -20 -20 -20 -20 -20 -20 -20 -20 -20 -20
4 -14 -19 -20 -20 -20 -20 -20 -20 -20 -17 10 -2 9 5 -20 -20 -20 -20 -20 -20 -20 -20 -20 -20 -20 -20 -20 -20 -20 -20 -20 -20 -20 -20 -20 -20 -20 -20 -20 -20 -20 -20 -20 -20 -20 -20
-18 5 -20 -11 -19 -11 -17 -20 -20 -20 -20 -20 -20 -18 -13 -20 -20 -20 -20 -20 -20 -20 -20 -20 -20 -20 -20 -20 -20 -20 -20 -20 -20 -20 -20 -20 -20 -20 -20 -17 -17 -20 -20 -20 -20 -20 -20
13 10 -4 8 -3 -20 -14 -4 -4 -20 -20 -20 -20 -20 -15 -20 -20 -20 -20 -20 -20 -20 -20 -20 -20 -20 -20 -20 -20 -20 -20 -20 -20 -20 -20 -20 -20 -20 -20 -20 -20 -20 -20 -20 -20 -20 -20
-20 -1 15 -16 10 -11 -19 -19 -15 -10 -20 -20 -20 -20 -20 -20 -20 -20 -20 -20 -20 -20 -20 -20 -20 -20 -20 -20 -20 -20 -20 -20 -19 -13 -20 -20 -20 -20 -20 -20 -20 -20 -20 -20 -20 -20 -20
-20 -20 7 17 16 -20 -20 -20 -20 -20 -20 -20 -20 -20 -20 -20 -20 -20 -20 -20 -20 -20 -20 -20 -20 -20 -20 -20 -20 -20 -20 -20 -20 -20 -20 -20 -20 -20 -20 -20 -20 -20 -20 -20 -12 -20 -20
-20 0 -1 18 15 9 -20 -20 -20 -20 -20 -20 -20 -16 -6 -19 -5 -20 -20 -20 -20 -20 -20 -20 -20 -20 -20 -20 -20 -20 -20 -20 -20 -20 -20 -20 -20 -20 -20 -20 -20 -20 -20 -20 -20 -20 -20
-20 -20 -12 -7 24 18 -20 -20 -20 -20 -20 -20 -18 12 -7 6 -18 3 -17 -20 -20 -20 -20 -20 -20 -20 -20 -20 -20 -20 -20 -20 -20 -20 -20 -20 -20 -20 -20 -20 -20 -20 -20 -20 -20 7 3
-6 -15 -10 -20 21 19 13 -1 -20 -20 -20 -20 5 16 7 -20 12 11 -6 -20 -20 -20 -20 -20 -20 -8 -20 -19 -5 -20 -20 -20 -20 -20 -20 -20 -20 -20 -20 -20 -20 -20 -20 -17 -9 -14 15
-20 -20 -20 -20 21 21 14 14 -20 -20 -20 -20 9 13 22 16 14 -4 3 -20 -20 -20 -20 -20 -20 -20 -20 -20 -20 -20 -20 -20 -20 -20 -20 -20 -20 -20 -20 -20 -20 -20 -20 -20 -18 -19 21
-20 -3 -20 -17 18 20 21 15 15 -19 -20 -20 12 4 16 18 9 1 -20 -20 -20 -20 -20 -20 -20 -20 -20 -20 -20 -20 -20 -20 -20 -20 -20 -20 -20 -20 -20 -16 -19 -20 -20 -20 -20 -20 -20
-20 -20 4 -12 16 22 15 39 10 9 -20 10 -1 17 22 21 -10 -20 -18 -20 -20 -20 -20 -20 -20 -20 -20 -20 -20 -20 -20 -20 -20 -20 -20 -20 -20 -20 -20 -20 -20 -20 -20 -20 -12 23 18
4 -20 -20 -11 -18 10 24 35 9 20 -11 17 -13 7 -13 -11 2 -20 -20 -20 -20 -20 -20 -20 -20 -20 -20 -20 -20 -20 -20 -20 -20 -20 -20 -20 -20 -20 -20 -20 -20 -20 -20 -20 -20 -20 6
4 -20 -20 -20 -20 16 37 34 38 23 24 20 -20 9 6 -20 -20 -20 -2 -20 10 12 -11 -20 -20 -20 -20 -20 -20 -20 -20 -20 -20 -20 -20 -20 -8 -20 -20 -20 -20 -20 -20 -20 -20 -20 -20
-11 -20 -20 -20 -20 20 9 41 30 22 30 17 -7 -20 11 -16 1 -18 -20 -20 -17 -20 -20 -20 -20 -20 -20 -20 -20 -20 -20 -20 -20 -20 -20 -16 7 11 -20 -4 6 4 -20 -20 -20 -20 -20
-20 -20 -20 -20 -20 8 18 36 39 31 26 -14 0 -20 -1 -7 -8 -9 -20 -20 -20 -20 -20 -20 -20 -20 -20 -20 -20 -20 -20 -20 -20 -20 -20 -20 -5 11 11 11 12 -20 -20 -20 -20 -20 2
-20 -20 -20 -20 -20 -18 18 28 40 32 6 9 -1 -3 14 13 -20 -20 -17 -20 -20 -20 -20 -20 -20 -20 -13 -20 -6 -13 -20 -20 -20 -20 -20 -20 9 15 16 12 -17 -20 -20 -2 5 -11 17
-20 -20 -20 -11 -20 -19 11 35 41 39 13 2 21 17 18 19 19 -20 -19 -20 -20 -20 -18 -20 -20 -20 -20 14 -13 4 -18 -20 -20 8 -19 -20 -8 23 6 15 4 -20 4 6 12 13 -20
8 -20 5 -20 -20 -20 -12 22 33 37 14 2 21 21 22 -18 -20 -20 -20 5 -20 -20 -20 -19 -20 -12 -19 -1 17 6 4 -20 -15 -20 -5 -3 3 10 17 11 -10 -20 7 26 15 -19 -20
-9 -17 -13 -20 -20 -20 33 41 39 36 28 6 18 15 21 -9 -9 -20 -20 -20 -16 8 19 18 10 20 -13 22 10 -1 6 5 7 -20 16 18 14 10 7 11 9 -20 -20 5 -5 -20 -20
17 8 -6 -20 19 17 32 36 34 29 25 9 16 16 28 24 -12 -16 -20 -20 -8 2 3 -3 19 -20 -0 -14 -1 18 25 11 22 20 11 16 11 10 -17 -1 3 12 -20 -20 -20 -20 -20